Notices

What's New in latest Release from April 7th, 2021:

- Updated Glossary, including Speed of Maximum Gust, and Total Hourly Precipitation

- Updated national and regional climate services offices contacts and prices information

- Addition of station inventory lists for 1981-2010, 1971-2000, and 1961-1990 Normals.

If you haven't already, please take our survey and provide feedback about our website: https://eccc.sondage-survey.ca/f/LanguageSelection.aspx?s=442ca660-fcf1-47c0-95a9-59707d6fd709

Hourly Data Report for April 18, 2017

CLYDE RIVER A
NUNAVUT

70°29'09.000" N
68°31'01.000" W
26.50 m
2400804
71090
YCY

Download Data

Hourly Data (April 2017)
Hourly Data Report for April 18, 2017
TIME
LST
Temp Definition
°C
Dew Point Definition
°C
Rel Hum Definition
%
Precip. Amount Definition
mm

Wind Dir Definition
10's deg

Wind Spd Definition
km/h
Visibility Definition
km
Stn Press Definition
kPa
Hmdx Definition


Wind Chill Definition


Weather Definition


00:00 -24.8 -27.2 81 0.0 29 28 16.1 100.55   -38 LegendNANA
01:00 -25.2 -27.0 85 0.0 25 11 16.1 100.56   -34 LegendNANA
02:00 -24.8 -27.0 82 0.0 25 11 16.1 100.59   -33 LegendNANA
03:00 -25.8 -28.3 80 0.0 28 9 16.1 100.63   -34 LegendNANA
04:00 -24.9 -27.3 81 0.0 27 8 16.1 100.66   -32 LegendNANA
05:00 -25.7 -28.1 81 0.0   0 16.1 100.67     LegendNANA
06:00 -25.7 -27.9 82 0.0 26 5 16.1 100.68   -31 LegendNANA
07:00 -24.1 -26.5 81 0.0 26 5 11.3 100.68   -29 LegendNANA
08:00 -22.9 -25.2 82 0.0   0 9.7 100.70     Fog
09:00 -20.8 -22.8 84 0.0 29 4 16.1 100.72   -24 LegendNANA
10:00 -20.7 -23.0 82 0.0   0 16.1 100.73     LegendNANA
11:00 -19.5 -22.0 81 0.0   0 2.8 100.76     Haze
12:00 -19.0 -21.3 82 0.0 9 4 16.1 100.78   -22 LegendNANA
13:00 -18.7 -21.2 81 0.0 5 5 16.1 100.81   -23 LegendNANA
14:00 -18.3 -21.3 78 0.0 34 4 16.1 100.84   -22 LegendNANA
15:00 -18.3 -21.1 79 0.0 35 8 16.1 100.87   -24 LegendNANA
16:00 -18.7 -21.3 80 0.0 LegendMM 4 16.1 100.92   -22 LegendNANA
17:00 -20.1 -22.9 79 0.0 35 9 16.1 100.95   -27 LegendNANA
18:00 -22.2 -24.8 80 0.0 34 9 16.1 100.99   -29 LegendNANA
19:00 -24.6 -26.7 83 0.0 36 8 16.1 101.03   -32 LegendNANA
20:00 -24.4 -26.5 83 0.0 27 5 16.1 101.08   -29 LegendNANA
21:00 -25.1 -27.4 81 0.0 29 5 16.1 101.11   -30 LegendNANA
22:00 -25.4 -27.7 82 0.0 30 5 16.1 101.13   -30 LegendNANA
23:00 -25.8 -28.1 81 0.0 31 9 16.1 101.15   -34 LegendNANA

Notes on Data Quality.

Legend

  • E = Estimated
  • M = Missing
  • NA = Not Available*
  • [empty] = Indicates an unobserved value
Date modified: